TimeEDT,TemperatureF,Dew PointF,Humidity,Sea Level PressureIn,VisibilityMPH,Wind Direction,Wind SpeedMPH,Gust SpeedMPH,PrecipitationIn,Events,Conditions,WindDirDegrees,DateUTC
12:56 AM,61.0,59.0,93,30.07,8.0,West,5.8,-,N/A,,Overcast,280,2012-10-10 04:56:00
1:56 AM,61.0,59.0,93,30.06,10.0,WNW,4.6,-,N/A,,Overcast,290,2012-10-10 05:56:00
2:53 AM,60.8,59.0,94,30.04,10.0,West,6.9,-,N/A,,Overcast,270,2012-10-10 06:53:00
2:56 AM,61.0,59.0,93,30.05,10.0,West,6.9,-,N/A,,Overcast,270,2012-10-10 06:56:00
3:02 AM,62.6,59.0,88,30.04,10.0,West,5.8,-,N/A,,Overcast,270,2012-10-10 07:02:00
3:56 AM,61.0,57.9,90,30.04,10.0,West,6.9,-,N/A,,Overcast,270,2012-10-10 07:56:00
4:23 AM,60.8,57.2,88,30.03,10.0,West,8.1,-,N/A,,Overcast,270,2012-10-10 08:23:00
4:43 AM,60.8,57.2,88,30.03,10.0,West,8.1,-,N/A,,Overcast,270,2012-10-10 08:43:00
4:56 AM,61.0,57.9,90,30.04,10.0,West,6.9,-,N/A,,Overcast,270,2012-10-10 08:56:00
5:56 AM,60.1,55.9,86,30.05,10.0,West,8.1,-,N/A,,Overcast,280,2012-10-10 09:56:00
6:09 AM,60.8,55.4,82,30.04,10.0,West,9.2,-,N/A,,Overcast,280,2012-10-10 10:09:00
6:36 AM,60.8,55.4,82,30.03,10.0,West,8.1,-,N/A,,Overcast,280,2012-10-10 10:36:00
6:56 AM,60.1,55.9,86,30.05,10.0,West,10.4,-,N/A,,Overcast,280,2012-10-10 10:56:00
7:41 AM,60.8,55.4,82,30.05,10.0,WNW,9.2,-,0.00,Rain,Light Rain,290,2012-10-10 11:41:00
7:56 AM,60.1,55.0,83,30.07,10.0,WNW,10.4,-,0.00,,Overcast,300,2012-10-10 11:56:00
8:14 AM,60.8,55.4,82,30.06,10.0,WNW,8.1,-,N/A,,Overcast,290,2012-10-10 12:14:00
8:29 AM,60.8,55.4,82,30.06,10.0,WNW,9.2,-,0.00,Rain,Light Rain,300,2012-10-10 12:29:00
8:48 AM,60.8,55.4,82,30.07,10.0,NW,9.2,-,0.00,,Overcast,320,2012-10-10 12:48:00
8:56 AM,60.1,54.0,80,30.09,10.0,WNW,9.2,-,0.00,,Overcast,300,2012-10-10 12:56:00
9:56 AM,61.0,52.0,72,30.09,10.0,WNW,8.1,-,N/A,,Overcast,300,2012-10-10 13:56:00
10:56 AM,61.0,52.0,72,30.08,10.0,WNW,8.1,-,N/A,,Overcast,290,2012-10-10 14:56:00
11:56 AM,63.0,53.1,70,30.07,10.0,WNW,8.1,-,N/A,,Overcast,290,2012-10-10 15:56:00
12:56 PM,64.0,54.0,70,30.05,10.0,West,9.2,-,N/A,,Overcast,280,2012-10-10 16:56:00
1:56 PM,66.9,54.0,63,30.02,10.0,West,9.2,-,N/A,,Mostly Cloudy,280,2012-10-10 17:56:00
2:06 PM,66.2,53.6,64,30.00,10.0,WSW,6.9,-,N/A,,Scattered Clouds,240,2012-10-10 18:06:00
2:56 PM,68.0,54.0,61,30.00,10.0,WSW,5.8,-,N/A,,Clear,250,2012-10-10 18:56:00
3:56 PM,69.1,53.1,57,29.99,10.0,West,10.4,-,N/A,,Clear,260,2012-10-10 19:56:00
4:56 PM,70.0,53.1,55,29.98,10.0,West,9.2,-,N/A,,Clear,270,2012-10-10 20:56:00
5:56 PM,69.1,54.0,58,29.99,10.0,West,6.9,-,N/A,,Clear,270,2012-10-10 21:56:00
6:56 PM,66.0,53.1,63,30.01,10.0,West,6.9,-,N/A,,Clear,280,2012-10-10 22:56:00
7:56 PM,66.9,54.0,63,30.03,10.0,West,6.9,-,N/A,,Clear,280,2012-10-10 23:56:00
8:56 PM,64.9,55.0,70,30.06,10.0,WSW,5.8,-,N/A,,Clear,240,2012-10-11 00:56:00
9:56 PM,63.0,55.9,78,30.08,10.0,SW,4.6,-,N/A,,Clear,220,2012-10-11 01:56:00
10:56 PM,62.1,57.0,84,30.09,10.0,SW,5.8,-,N/A,,Clear,220,2012-10-11 02:56:00
11:56 PM,63.0,57.0,81,30.09,10.0,WSW,6.9,-,N/A,,Clear,250,2012-10-11 03:56:00